| time (UTC) | temp C | wind direction | speed KPH | gust KPH | rain 1hr cm | rain 24hr cm | rain mn cm | humidity % | barometer mb |
| 20260507130352 | 17 | 42 | 1.6 | 17.7 | 0.00 | 0.00 | 0.00 | 79 | 949.9 |
| 20260507125851 | 17 | 13 | 3.2 | 17.7 | 0.00 | 0.00 | 0.00 | 79 | 949.6 |
| 20260507125350 | 17 | 29 | 4.8 | 17.7 | 0.00 | 0.00 | 0.00 | 77 | 949.4 |
| 20260507124849 | 17 | 8 | 4.8 | 17.7 | 0.00 | 0.00 | 0.00 | 77 | 949.9 |
| 20260507124348 | 17 | 20 | 4.8 | 17.7 | 0.00 | 0.00 | 0.00 | 78 | 949.6 |
| 20260507123846 | 17 | 23 | 4.8 | 17.7 | 0.00 | 0.00 | 0.00 | 78 | 949.6 |
| 20260507123345 | 17 | 25 | 6.4 | 17.7 | 0.00 | 0.00 | 0.00 | 79 | 949.6 |
| 20260507122844 | 17 | 26 | 8.0 | 17.7 | 0.00 | 0.00 | 0.00 | 79 | 949.6 |
| 20260507122343 | 17 | 24 | 8.0 | 17.7 | 0.00 | 0.00 | 0.00 | 80 | 950.0 |
| 20260507121841 | 17 | 26 | 9.7 | 17.7 | 0.00 | 0.00 | 0.00 | 80 | 949.7 |
| 20260507120824 | 17 | 16 | 6.4 | 17.7 | 0.00 | 0.00 | 0.00 | 81 | 949.7 |
| 20260507120323 | 17 | 20 | 4.8 | 17.7 | 0.00 | 0.00 | 0.00 | 81 | 949.7 |
| 20260507115822 | 17 | 32 | 6.4 | 17.7 | 0.00 | 0.00 | 0.00 | 80 | 950.0 |
| 20260507115321 | 17 | 30 | 8.0 | 17.7 | 0.00 | 0.00 | 0.00 | 78 | 950.0 |
| 20260507114820 | 17 | 22 | 6.4 | 17.7 | 0.00 | 0.00 | 0.00 | 78 | 949.7 |
| 20260507114319 | 17 | 24 | 6.4 | 17.7 | 0.00 | 0.00 | 0.00 | 79 | 950.0 |
| 20260507113302 | 17 | 12 | 4.8 | 17.7 | 0.00 | 0.00 | 0.00 | 78 | 950.0 |
| 20260507112245 | 17 | 37 | 1.6 | 17.7 | 0.00 | 0.00 | 0.00 | 80 | 950.3 |
| 20260507111744 | 17 | 338 | 1.6 | 17.7 | 0.00 | 0.00 | 0.00 | 81 | 950.5 |
| 20260507111243 | 17 | 336 | 1.6 | 17.7 | 0.00 | 0.00 | 0.00 | 83 | 950.8 |
| 20260507105709 | 17 | 29 | 0.0 | 17.7 | 0.00 | 0.00 | 0.00 | 83 | 950.6 |
| 20260507105208 | 17 | 74 | 1.6 | 17.7 | 0.00 | 0.00 | 0.00 | 83 | 950.9 |
| 20260507104707 | 17 | 20 | 3.2 | 17.7 | 0.00 | 0.00 | 0.00 | 83 | 950.9 |
| 20260507103650 | 18 | 10 | 3.2 | 17.7 | 0.00 | 0.00 | 0.00 | 81 | 950.5 |
| 20260507103149 | 18 | 21 | 3.2 | 17.7 | 0.00 | 0.00 | 0.00 | 81 | 950.9 |
| 20260507102648 | 18 | 114 | 1.6 | 17.7 | 0.00 | 0.00 | 0.00 | 82 | 950.8 |
| 20260507102146 | 18 | 0 | 4.8 | 17.7 | 0.00 | 0.00 | 0.00 | 82 | 950.8 |
| 20260507101645 | 18 | 6 | 4.8 | 17.7 | 0.00 | 0.00 | 0.00 | 82 | 950.6 |
| 20260507101144 | 18 | 359 | 3.2 | 17.7 | 0.00 | 0.00 | 0.00 | 83 | 951.1 |
| 20260507100127 | 18 | 324 | 3.2 | 17.7 | 0.00 | 0.00 | 0.00 | 81 | 951.1 |
| 20260507095626 | 18 | 340 | 3.2 | 17.7 | 0.00 | 0.00 | 0.00 | 82 | 950.8 |
| 20260507095125 | 18 | 3 | 3.2 | 17.7 | 0.00 | 0.00 | 0.00 | 82 | 950.7 |
| 20260507094624 | 18 | 12 | 4.8 | 17.7 | 0.00 | 0.00 | 0.00 | 82 | 951.0 |
| 20260507094122 | 18 | 28 | 4.8 | 17.7 | 0.00 | 0.00 | 0.00 | 81 | 950.7 |
| 20260507093621 | 18 | 23 | 8.0 | 22.5 | 0.00 | 0.00 | 0.00 | 81 | 950.7 |
| 20260507092048 | 18 | 17 | 6.4 | 22.5 | 0.00 | 0.00 | 0.00 | 74 | 950.9 |
| 20260507091547 | 18 | 24 | 8.0 | 22.5 | 0.00 | 0.00 | 0.00 | 73 | 950.7 |
| 20260507091046 | 18 | 20 | 8.0 | 22.5 | 0.00 | 0.00 | 0.00 | 72 | 950.8 |
| 20260507090029 | 18 | 17 | 6.4 | 19.3 | 0.00 | 0.00 | 0.00 | 73 | 951.0 |
| 20260507085528 | 18 | 25 | 8.0 | 19.3 | 0.00 | 0.00 | 0.00 | 74 | 950.6 |
| 20260507085027 | 18 | 24 | 8.0 | 19.3 | 0.00 | 0.00 | 0.00 | 72 | 950.8 |
| 20260507084526 | 18 | 15 | 8.0 | 19.3 | 0.00 | 0.00 | 0.00 | 72 | 951.2 |
| 20260507084025 | 18 | 14 | 6.4 | 19.3 | 0.00 | 0.00 | 0.00 | 72 | 951.3 |
| 20260507082452 | 18 | 28 | 8.0 | 19.3 | 0.00 | 0.00 | 0.00 | 71 | 950.8 |
| 20260507081435 | 18 | 20 | 4.8 | 19.3 | 0.00 | 0.00 | 0.00 | 69 | 951.0 |
| 20260507080935 | 18 | 28 | 3.2 | 19.3 | 0.00 | 0.00 | 0.00 | 68 | 951.2 |
| 20260507080433 | 18 | 40 | 4.8 | 19.3 | 0.00 | 0.00 | 0.00 | 68 | 951.0 |
| 20260507075417 | 19 | 26 | 3.2 | 19.3 | 0.00 | 0.00 | 0.00 | 66 | 951.0 |
| 20260507074915 | 19 | 30 | 4.8 | 19.3 | 0.00 | 0.00 | 0.00 | 66 | 951.2 |
| 20260507074414 | 19 | 16 | 3.2 | 19.3 | 0.00 | 0.00 | 0.00 | 67 | 951.0 |
| 20260507073913 | 19 | 9 | 3.2 | 19.3 | 0.00 | 0.00 | 0.00 | 67 | 950.9 |
| 20260507073412 | 19 | 15 | 4.8 | 19.3 | 0.00 | 0.00 | 0.00 | 67 | 951.1 |
| 20260507072911 | 19 | 14 | 3.2 | 19.3 | 0.00 | 0.00 | 0.00 | 68 | 950.7 |
| 20260507072410 | 19 | 19 | 6.4 | 19.3 | 0.00 | 0.00 | 0.00 | 67 | 950.9 |
| 20260507071909 | 19 | 14 | 4.8 | 19.3 | 0.00 | 0.00 | 0.00 | 67 | 951.1 |
| 20260507070852 | 18 | 19 | 6.4 | 19.3 | 0.00 | 0.00 | 0.00 | 69 | 950.5 |
| 20260507070352 | 18 | 18 | 6.4 | 19.3 | 0.00 | 0.00 | 0.00 | 70 | 950.4 |
| 20260507065334 | 18 | 28 | 4.8 | 19.3 | 0.00 | 0.00 | 0.00 | 73 | 950.3 |
| 20260507064833 | 18 | 29 | 4.8 | 19.3 | 0.00 | 0.00 | 0.00 | 74 | 950.3 |
| 20260507064331 | 18 | 32 | 6.4 | 19.3 | 0.00 | 0.00 | 0.00 | 75 | 950.1 |
| 20260507063315 | 18 | 39 | 4.8 | 19.3 | 0.00 | 0.00 | 0.00 | 74 | 950.2 |
| 20260507062813 | 18 | 32 | 4.8 | 19.3 | 0.00 | 0.00 | 0.00 | 74 | 950.0 |
| 20260507061757 | 18 | 38 | 4.8 | 19.3 | 0.00 | 0.00 | 0.00 | 72 | 950.3 |
| 20260507061256 | 18 | 29 | 6.4 | 19.3 | 0.00 | 0.00 | 0.00 | 73 | 949.9 |
| 20260507060754 | 19 | 41 | 3.2 | 19.3 | 0.00 | 0.00 | 0.00 | 72 | 949.9 |
| 20260507060253 | 20 | 31 | 6.4 | 19.3 | 0.00 | 0.00 | 0.00 | 71 | 950.3 |
| 20260507055753 | 20 | 22 | 3.2 | 19.3 | 0.00 | 0.00 | 0.00 | 69 | 950.0 |
| 20260507054735 | 20 | 40 | 4.8 | 19.3 | 0.00 | 0.00 | 0.00 | 69 | 950.2 |
| 20260507054235 | 20 | 27 | 4.8 | 19.3 | 0.00 | 0.00 | 0.00 | 69 | 950.2 |
| 20260507053733 | 20 | 18 | 3.2 | 19.3 | 0.00 | 0.00 | 0.00 | 70 | 949.9 |
| 20260507053233 | 20 | 38 | 3.2 | 19.3 | 0.00 | 0.00 | 0.00 | 72 | 949.9 |
| 20260507052731 | 20 | 44 | 4.8 | 19.3 | 0.00 | 0.00 | 0.00 | 72 | 949.8 |
| 20260507052230 | 20 | 64 | 3.2 | 19.3 | 0.00 | 0.00 | 0.00 | 73 | 949.9 |
| 20260507051729 | 20 | 59 | 3.2 | 19.3 | 0.00 | 0.00 | 0.00 | 73 | 949.7 |
| 20260507050711 | 19 | 60 | 3.2 | 19.3 | 0.00 | 0.00 | 0.00 | 73 | 949.4 |
| 20260507050210 | 19 | 62 | 3.2 | 19.3 | 0.00 | 0.00 | 0.00 | 74 | 949.1 |
| 20260507045709 | 20 | 67 | 1.6 | 19.3 | 0.00 | 0.00 | 0.00 | 74 | 949.3 |
| 20260507045207 | 20 | 36 | 3.2 | 19.3 | 0.00 | 0.00 | 0.00 | 72 | 949.1 |
| 20260507044707 | 20 | 49 | 3.2 | 19.3 | 0.00 | 0.00 | 0.00 | 72 | 949.1 |
| 20260507044206 | 20 | 37 | 4.8 | 19.3 | 0.00 | 0.00 | 0.00 | 71 | 949.1 |
| 20260507041601 | 21 | 37 | 4.8 | 19.3 | 0.00 | 0.00 | 0.00 | 70 | 949.1 |
| 20260507041059 | 21 | 39 | 3.2 | 19.3 | 0.00 | 0.00 | 0.00 | 70 | 949.1 |
| 20260507040558 | 21 | 34 | 3.2 | 19.3 | 0.00 | 0.00 | 0.00 | 70 | 949.0 |
| 20260507040057 | 21 | 37 | 4.8 | 19.3 | 0.00 | 0.00 | 0.00 | 69 | 948.9 |
| 20260507035556 | 21 | 39 | 6.4 | 19.3 | 0.00 | 0.00 | 0.00 | 69 | 949.0 |
| 20260507035055 | 21 | 28 | 3.2 | 19.3 | 0.00 | 0.00 | 0.00 | 70 | 949.0 |
| 20260507034554 | 22 | 43 | 4.8 | 19.3 | 0.00 | 0.00 | 0.00 | 70 | 948.9 |
| 20260507034052 | 22 | 36 | 4.8 | 19.3 | 0.00 | 0.00 | 0.00 | 71 | 948.8 |
| 20260507033552 | 22 | 41 | 4.8 | 19.3 | 0.00 | 0.00 | 0.00 | 70 | 948.7 |
| 20260507033051 | 22 | 42 | 4.8 | 19.3 | 0.00 | 0.00 | 0.00 | 71 | 948.9 |
| 20260507032550 | 22 | 44 | 4.8 | 19.3 | 0.00 | 0.00 | 0.00 | 70 | 948.7 |
| 20260507032049 | 22 | 44 | 4.8 | 19.3 | 0.00 | 0.00 | 0.00 | 69 | 948.7 |
| 20260507031547 | 23 | 54 | 4.8 | 19.3 | 0.00 | 0.00 | 0.00 | 69 | 948.6 |
| 20260507031046 | 23 | 51 | 4.8 | 19.3 | 0.00 | 0.00 | 0.00 | 69 | 948.6 |
| 20260507030545 | 23 | 60 | 4.8 | 19.3 | 0.00 | 0.00 | 0.00 | 68 | 948.8 |
| 20260507025528 | 24 | 51 | 3.2 | 19.3 | 0.00 | 0.00 | 0.00 | 69 | 948.8 |
| 20260507025027 | 23 | 52 | 4.8 | 19.3 | 0.00 | 0.00 | 0.00 | 67 | 948.7 |
| 20260507024010 | 23 | 45 | 4.8 | 19.3 | 0.00 | 0.00 | 0.00 | 67 | 948.5 |
| 20260507022953 | 23 | 64 | 3.2 | 19.3 | 0.00 | 0.00 | 0.00 | 63 | 948.8 |
| 20260507022451 | 23 | 45 | 3.2 | 19.3 | 0.00 | 0.00 | 0.00 | 65 | 948.2 |
| 20260507021950 | 24 | 55 | 6.4 | 19.3 | 0.00 | 0.00 | 0.00 | 65 | 948.6 |
| 20260507020933 | 24 | 41 | 4.8 | 19.3 | 0.00 | 0.00 | 0.00 | 67 | 948.6 |
| 20260507020432 | 24 | 46 | 4.8 | 19.3 | 0.00 | 0.00 | 0.00 | 67 | 948.4 |
| 20260507015931 | 23 | 41 | 4.8 | 19.3 | 0.00 | 0.00 | 0.00 | 69 | 948.4 |
| 20260507015430 | 23 | 39 | 4.8 | 19.3 | 0.00 | 0.00 | 0.00 | 67 | 948.7 |
| 20260507014929 | 24 | 21 | 3.2 | 19.3 | 0.00 | 0.00 | 0.00 | 64 | 948.7 |
| 20260507014428 | 25 | 32 | 3.2 | 19.3 | 0.00 | 0.00 | 0.00 | 63 | 948.7 |
| 20260507013927 | 25 | 52 | 4.8 | 19.3 | 0.00 | 0.00 | 0.00 | 64 | 949.0 |
| 20260507013426 | 25 | 43 | 3.2 | 19.3 | 0.00 | 0.00 | 0.00 | 68 | 948.5 |
| 20260507012925 | 25 | 41 | 4.8 | 19.3 | 0.00 | 0.00 | 0.00 | 67 | 948.6 |
| 20260507012423 | 24 | 62 | 1.6 | 19.3 | 0.00 | 0.00 | 0.00 | 68 | 948.8 |
| 20260507011922 | 24 | 96 | 1.6 | 19.3 | 0.00 | 0.00 | 0.00 | 64 | 948.7 |
| 20260507011421 | 25 | 13 | 1.6 | 19.3 | 0.00 | 0.00 | 0.00 | 64 | 948.8 |
| 20260507010920 | 25 | 143 | 0.0 | 19.3 | 0.00 | 0.00 | 0.00 | 67 | 949.1 |
| 20260507005903 | 25 | 53 | 1.6 | 19.3 | 0.00 | 0.00 | 0.00 | 64 | 949.0 |
| 20260507005402 | 25 | 81 | 4.8 | 19.3 | 0.00 | 0.00 | 0.00 | 62 | 949.1 |
| 20260507004901 | 25 | 87 | 1.6 | 19.3 | 0.00 | 0.00 | 0.00 | 63 | 948.9 |
| 20260507004400 | 25 | 90 | 4.8 | 19.3 | 0.00 | 0.00 | 0.00 | 63 | 949.0 |
| 20260507003859 | 25 | 76 | 0.0 | 19.3 | 0.00 | 0.00 | 0.00 | 66 | 949.0 |
| 20260507003358 | 25 | 60 | 1.6 | 19.3 | 0.00 | 0.00 | 0.00 | 63 | 949.3 |
| 20260507002857 | 25 | 83 | 4.8 | 19.3 | 0.00 | 0.00 | 0.00 | 64 | 949.2 |
| 20260507002356 | 25 | 110 | 4.8 | 17.7 | 0.00 | 0.00 | 0.00 | 67 | 949.0 |
| 20260507001855 | 25 | 96 | 4.8 | 17.7 | 0.00 | 0.00 | 0.00 | 64 | 949.0 |
| 20260507000838 | 25 | 105 | 4.8 | 17.7 | 0.00 | 0.00 | 0.00 | 64 | 949.4 |
| 20260507000337 | 25 | 107 | 6.4 | 17.7 | 0.00 | 0.00 | 0.00 | 64 | 949.4 |
| 20260506235836 | 25 | 127 | 6.4 | 17.7 | 0.00 | 0.00 | 0.00 | 63 | 949.4 |
| 20260506235335 | 25 | 129 | 9.7 | 19.3 | 0.00 | 0.00 | 0.00 | 66 | 949.4 |
| 20260506234834 | 23 | 142 | 3.2 | 19.3 | 0.00 | 0.00 | 0.00 | 70 | 949.5 |
| 20260506234333 | 23 | 161 | 3.2 | 19.3 | 0.00 | 0.00 | 0.00 | 76 | 949.8 |
| 20260506233832 | 23 | 298 | 0.0 | 19.3 | 0.00 | 0.00 | 0.00 | 82 | 949.5 |
| 20260506232814 | 23 | 203 | 1.6 | 19.3 | 0.00 | 0.00 | 0.00 | 82 | 949.8 |
| 20260506232313 | 23 | 233 | 3.2 | 19.3 | 0.00 | 0.00 | 0.00 | 82 | 949.8 |
| 20260506231812 | 23 | 271 | 3.2 | 19.3 | 0.00 | 0.00 | 0.00 | 83 | 950.0 |
| 20260506231311 | 23 | 238 | 4.8 | 19.3 | 0.00 | 0.00 | 0.00 | 87 | 949.9 |
| 20260506230810 | 22 | 259 | 4.8 | 19.3 | 0.00 | 0.00 | 0.00 | 87 | 950.1 |
| 20260506230309 | 22 | 277 | 4.8 | 19.3 | 0.00 | 0.00 | 0.00 | 87 | 950.2 |
| 20260506225808 | 22 | 262 | 4.8 | 19.3 | 0.00 | 0.00 | 0.00 | 87 | 950.2 |
| 20260506225307 | 22 | 271 | 4.8 | 19.3 | 0.00 | 0.00 | 0.00 | 87 | 949.9 |
| 20260506224250 | 22 | 249 | 6.4 | 19.3 | 0.00 | 0.00 | 0.00 | 86 | 950.2 |
| 20260506223749 | 22 | 261 | 9.7 | 19.3 | 0.00 | 0.00 | 0.00 | 86 | 950.1 |
| 20260506223248 | 22 | 261 | 4.8 | 19.3 | 0.00 | 0.00 | 0.00 | 85 | 949.9 |
| 20260506222747 | 22 | 255 | 3.2 | 19.3 | 0.00 | 0.00 | 0.00 | 86 | 950.1 |
| 20260506222246 | 22 | 241 | 4.8 | 19.3 | 0.00 | 0.00 | 0.00 | 85 | 950.1 |
| 20260506221745 | 22 | 218 | 3.2 | 19.3 | 0.00 | 0.00 | 0.00 | 86 | 950.1 |
| 20260506221244 | 22 | 272 | 4.8 | 19.3 | 0.00 | 0.00 | 0.00 | 87 | 950.1 |
| 20260506220742 | 22 | 262 | 8.0 | 19.3 | 0.00 | 0.00 | 0.00 | 87 | 949.9 |
| 20260506214653 | 22 | 235 | 8.0 | 19.3 | 0.00 | 0.00 | 0.00 | 86 | 950.6 |
| 20260506214152 | 22 | 265 | 12.9 | 19.3 | 0.00 | 0.00 | 0.00 | 84 | 950.8 |
| 20260506213135 | 23 | 290 | 4.8 | 19.3 | 0.00 | 0.00 | 0.00 | 82 | 950.7 |
| 20260506212634 | 23 | 258 | 8.0 | 19.3 | 0.00 | 0.00 | 0.00 | 81 | 950.6 |
| 20260506212133 | 24 | 237 | 6.4 | 17.7 | 0.00 | 0.00 | 0.00 | 80 | 951.0 |
| 20260506211632 | 24 | 211 | 3.2 | 17.7 | 0.00 | 0.00 | 0.00 | 79 | 950.6 |
| 20260506205543 | 25 | 67 | 3.2 | 17.7 | 0.00 | 0.00 | 0.00 | 69 | 950.5 |
| 20260506205042 | 24 | 110 | 9.7 | 17.7 | 0.00 | 0.00 | 0.00 | 69 | 950.5 |
| 20260506204541 | 25 | 106 | 6.4 | 17.7 | 0.00 | 0.00 | 0.00 | 70 | 950.8 |
| 20260506203524 | 24 | 104 | 6.4 | 17.7 | 0.00 | 0.00 | 0.00 | 67 | 950.7 |
| 20260506203023 | 24 | 99 | 4.8 | 17.7 | 0.00 | 0.00 | 0.00 | 69 | 950.6 |
| 20260506202523 | 24 | 111 | 8.0 | 17.7 | 0.00 | 0.00 | 0.00 | 68 | 950.8 |
| 20260506202021 | 24 | 99 | 6.4 | 17.7 | 0.00 | 0.00 | 0.00 | 72 | 950.6 |
| 20260506201519 | 24 | 44 | 1.6 | 17.7 | 0.00 | 0.00 | 0.00 | 72 | 950.6 |
| 20260506201018 | 23 | 61 | 4.8 | 17.7 | 0.00 | 0.00 | 0.00 | 70 | 950.7 |
| 20260506200517 | 23 | 101 | 9.7 | 17.7 | 0.00 | 0.00 | 0.00 | 69 | 950.6 |
| 20260506200016 | 23 | 98 | 9.7 | 17.7 | 0.00 | 0.00 | 0.00 | 70 | 950.4 |
| 20260506195515 | 23 | 98 | 8.0 | 17.7 | 0.00 | 0.00 | 0.00 | 70 | 950.4 |
| 20260506195014 | 23 | 94 | 6.4 | 17.7 | 0.00 | 0.00 | 0.00 | 74 | 950.9 |
| 20260506194513 | 22 | 159 | 1.6 | 17.7 | 0.00 | 0.00 | 0.00 | 76 | 950.7 |
| 20260506194012 | 22 | 298 | 0.0 | 17.7 | 0.00 | 0.00 | 0.00 | 76 | 950.9 |
| 20260506193511 | 22 | 298 | 0.0 | 17.7 | 0.00 | 0.00 | 0.00 | 78 | 950.8 |
| 20260506193010 | 22 | 298 | 0.0 | 17.7 | 0.00 | 0.00 | 0.00 | 76 | 951.1 |
| 20260506192509 | 22 | 298 | 0.0 | 17.7 | 0.00 | 0.00 | 0.00 | 77 | 951.0 |
| 20260506192008 | 22 | 298 | 0.0 | 17.7 | 0.00 | 0.00 | 0.00 | 77 | 951.1 |
| 20260506191507 | 22 | 298 | 0.0 | 17.7 | 0.00 | 0.00 | 0.00 | 76 | 951.0 |
| 20260506191006 | 22 | 298 | 0.0 | 17.7 | 0.00 | 0.00 | 0.00 | 77 | 950.8 |
| 20260506190505 | 22 | 298 | 0.0 | 17.7 | 0.00 | 0.00 | 0.00 | 77 | 950.9 |
| 20260506190005 | 22 | 285 | 0.0 | 17.7 | 0.00 | 0.00 | 0.00 | 76 | 950.7 |
| 20260506185504 | 22 | 321 | 1.6 | 17.7 | 0.00 | 0.00 | 0.00 | 76 | 950.8 |
| 20260506185002 | 22 | 280 | 1.6 | 17.7 | 0.00 | 0.00 | 0.00 | 77 | 951.0 |
| 20260506184501 | 22 | 240 | 1.6 | 17.7 | 0.00 | 0.00 | 0.00 | 79 | 950.9 |
| 20260506184000 | 22 | 235 | 4.8 | 17.7 | 0.00 | 0.00 | 0.00 | 78 | 951.2 |
| 20260506182428 | 22 | 122 | 3.2 | 17.7 | 0.00 | 0.00 | 0.00 | 80 | 950.5 |
| 20260506181926 | 22 | 116 | 6.4 | 17.7 | 0.00 | 0.00 | 0.00 | 78 | 950.7 |
| 20260506180909 | 22 | 136 | 3.2 | 17.7 | 0.00 | 0.00 | 0.00 | 82 | 950.4 |
| 20260506180408 | 22 | 137 | 6.4 | 17.7 | 0.00 | 0.00 | 0.00 | 81 | 950.5 |
| 20260506175351 | 21 | 81 | 3.2 | 17.7 | 0.00 | 0.00 | 0.00 | 83 | 950.2 |
| 20260506174335 | 20 | 87 | 0.0 | 17.7 | 0.00 | 0.00 | 0.00 | 87 | 950.1 |
| 20260506173834 | 20 | 39 | 0.0 | 17.7 | 0.00 | 0.00 | 0.00 | 89 | 949.8 |
| 20260506173333 | 20 | 82 | 0.0 | 17.7 | 0.00 | 0.00 | 0.00 | 92 | 949.8 |
| 20260506172831 | 19 | 63 | 0.0 | 17.7 | 0.00 | 0.00 | 0.00 | 92 | 949.9 |
| 20260506172331 | 18 | 31 | 0.0 | 17.7 | 0.00 | 0.00 | 0.00 | 93 | 949.7 |
| 20260506171313 | 18 | 31 | 0.0 | 17.7 | 0.00 | 0.00 | 0.00 | 91 | 949.5 |
| 20260506170812 | 17 | 21 | 1.6 | 17.7 | 0.00 | 0.00 | 0.00 | 90 | 949.2 |
| 20260506165755 | 17 | 30 | 1.6 | 17.7 | 0.00 | 0.00 | 0.00 | 90 | 949.5 |
| 20260506165255 | 17 | 29 | 1.6 | 17.7 | 0.00 | 0.00 | 0.00 | 91 | 949.2 |
| 20260506164753 | 17 | 4 | 0.0 | 17.7 | 0.00 | 0.00 | 0.00 | 92 | 949.1 |
| 20260506164251 | 16 | 4 | 0.0 | 17.7 | 0.00 | 0.00 | 0.00 | 91 | 949.4 |
| 20260506163750 | 16 | 4 | 0.0 | 17.7 | 0.00 | 0.00 | 0.00 | 90 | 949.1 |
| 20260506163249 | 16 | 4 | 1.6 | 17.7 | 0.00 | 0.00 | 0.00 | 90 | 949.2 |
| 20260506162749 | 16 | 6 | 1.6 | 17.7 | 0.00 | 0.00 | 0.00 | 90 | 949.0 |
| 20260506162248 | 16 | 3 | 1.6 | 17.7 | 0.00 | 0.00 | 0.00 | 91 | 948.9 |
| 20260506161747 | 16 | 0 | 1.6 | 17.7 | 0.00 | 0.00 | 0.00 | 91 | 948.8 |
| 20260506160729 | 16 | 7 | 1.6 | 17.7 | 0.00 | 0.00 | 0.00 | 93 | 949.0 |
| 20260506155713 | 15 | 18 | 0.0 | 17.7 | 0.00 | 0.00 | 0.00 | 92 | 948.6 |
| 20260506155212 | 16 | 13 | 3.2 | 17.7 | 0.00 | 0.00 | 0.00 | 93 | 948.5 |
| 20260506154154 | 16 | 13 | 3.2 | 17.7 | 0.00 | 0.00 | 0.00 | 92 | 948.5 |
| 20260506153653 | 16 | 0 | 3.2 | 17.7 | 0.00 | 0.00 | 0.00 | 92 | 948.4 |
| 20260506153153 | 16 | 1 | 3.2 | 17.7 | 0.00 | 0.00 | 0.00 | 92 | 948.5 |
| 20260506152651 | 16 | 1 | 3.2 | 17.7 | 0.00 | 0.00 | 0.00 | 92 | 948.8 |
| 20260506152150 | 16 | 6 | 3.2 | 17.7 | 0.00 | 0.00 | 0.00 | 92 | 948.6 |
| 20260506151648 | 16 | 14 | 3.2 | 17.7 | 0.00 | 0.00 | 0.00 | 92 | 948.4 |
| 20260506151147 | 16 | 13 | 3.2 | 17.7 | 0.00 | 0.00 | 0.00 | 92 | 948.5 |
| 20260506150646 | 16 | 0 | 1.6 | 17.7 | 0.00 | 0.00 | 0.00 | 93 | 949.1 |
| 20260506150145 | 16 | 0 | 3.2 | 17.7 | 0.00 | 0.00 | 0.00 | 93 | 949.0 |
| 20260506144612 | 16 | 9 | 3.2 | 17.7 | 0.00 | 0.00 | 0.00 | 91 | 948.3 |
| 20260506144112 | 16 | 9 | 3.2 | 17.7 | 0.00 | 0.00 | 0.00 | 91 | 948.5 |
| 20260506143614 | 16 | 9 | 3.2 | 17.7 | 0.00 | 0.00 | 0.00 | 92 | 948.2 |
| 20260506143109 | 16 | 13 | 3.2 | 17.7 | 0.00 | 0.00 | 0.00 | 91 | 948.4 |
| 20260506142608 | 16 | 14 | 3.2 | 17.7 | 0.00 | 0.00 | 0.00 | 93 | 948.4 |
| 20260506142107 | 16 | 13 | 3.2 | 17.7 | 0.00 | 0.00 | 0.00 | 92 | 947.9 |
| 20260506141607 | 16 | 18 | 3.2 | 17.7 | 0.00 | 0.00 | 0.00 | 92 | 948.6 |
| 20260506141106 | 16 | 12 | 1.6 | 17.7 | 0.00 | 0.00 | 0.00 | 93 | 948.1 |
| 20260506140604 | 16 | 15 | 1.6 | 17.7 | 0.00 | 0.00 | 0.00 | 93 | 948.2 |
| 20260506135602 | 16 | 16 | 3.2 | 17.7 | 0.00 | 0.00 | 0.00 | 94 | 948.5 |
| 20260506135101 | 16 | 16 | 3.2 | 17.7 | 0.00 | 0.00 | 0.00 | 94 | 948.3 |
| 20260506134600 | 16 | 15 | 3.2 | 17.7 | 0.00 | 0.00 | 0.00 | 94 | 948.2 |
| 20260506134059 | 16 | 24 | 1.6 | 17.7 | 0.00 | 0.00 | 0.00 | 95 | 948.4 |
| 20260506133558 | 16 | 38 | 3.2 | 17.7 | 0.00 | 0.00 | 0.00 | 95 | 948.3 |
| 20260506133056 | 16 | 27 | 3.2 | 17.7 | 0.00 | 0.00 | 0.00 | 95 | 948.5 |
| 20260506132555 | 16 | 30 | 3.2 | 17.7 | 0.00 | 0.00 | 0.00 | 95 | 948.3 |
| 20260506131538 | 16 | 13 | 3.2 | 17.7 | 0.00 | 0.00 | 0.00 | 94 | 948.8 |
| 20260506130521 | 16 | 2 | 1.6 | 17.7 | 0.00 | 0.00 | 0.00 | 94 | 948.4 |